 day,  time,  air_temp(C),  RH(%),  ground_temp10cm(C),  ground_temp20cm(C),  ground_temp40cm(C),  precipitation(mm/h),  Solar_Radiation(MJ/m2h),  lack, 
 07/03/01, 01:00,  -8.0,  90,   0.8,   1.2,   2.0,   0.0,  1.59, 
 07/03/01, 02:00,  -8.5,  93,   0.8,   1.2,   2.0,   0.0,  1.97, 
 07/03/01, 03:00,  -7.9,  95,   0.8,   1.2,   2.0,   0.0,  1.95, 
 07/03/01, 04:00,  -8.5,  92,   0.8,   1.2,   2.0,   0.0,  1.96, 
 07/03/01, 05:00,  -8.3,  96,   0.8,   1.2,   2.0,   0.0,  1.92, 
 07/03/01, 06:00,  -8.7,  89,   0.8,   1.2,   2.0,   0.0,  1.88, 
 07/03/01, 07:00,  -7.4,  80,   0.8,   1.2,   2.0,   0.0,  1.87, 
 07/03/01, 08:00,  -6.9,  83,   0.8,   1.1,   2.0,   0.0,  1.89, 
 07/03/01, 09:00,  -5.1,  77,   0.8,   1.2,   2.0,   0.0,  1.93, 
 07/03/01, 10:00,  -2.5,  73,   0.8,   1.2,   2.0,   0.0,  1.94, 
 07/03/01, 11:00,  -0.5,  66,   0.9,   1.2,   2.0,   0.0,  1.92, 
 07/03/01, 12:00,   1.2,  56,   0.9,   1.2,   2.0,   0.0,  1.98, 
 07/03/01, 13:00,   1.8,  52,   0.9,   1.3,   2.1,   0.0,  1.87, 
 07/03/01, 14:00,   3.9,  44,   0.9,   1.2,   2.0,   0.0,  1.73, 
 07/03/01, 15:00,   2.7,  47,   0.9,   1.2,   2.0,   0.0,  1.80, 
 07/03/01, 16:00,   2.0,  51,   0.9,   1.2,   2.0,   0.0,  1.89, 
 07/03/01, 17:00,   0.9,  60,   0.9,   1.2,   2.0,   0.0,  1.93, 
 07/03/01, 18:00,  -1.2,  68,   0.9,   1.2,   2.0,   0.0,  1.99, 
 07/03/01, 19:00,  -0.9,  67,   0.8,   1.2,   2.0,   0.0,  1.97, 
 07/03/01, 20:00,  -1.8,  73,   0.8,   1.2,   2.0,   0.0,  1.99, 
 07/03/01, 21:00,  -3.2,  81,   0.8,   1.2,   2.0,   0.0,  1.99, 
 07/03/01, 22:00,  -1.3,  68,   0.8,   1.2,   2.0,   0.0,  2.01, 
 07/03/01, 23:00,   2.1,  44,   0.8,   1.2,   2.0,   0.0,  2.00, 
 07/03/02, 00:00,  -2.6,  70,   0.8,   1.2,   2.0,   0.0,  1.95, 
 07/03/02, 01:00,   1.0,  41,   0.8,   1.2,   2.0,   0.0,  1.63, 
 07/03/02, 02:00,   0.3,  40,   0.8,   1.2,   2.0,   0.0,  1.97, 
 07/03/02, 03:00,  -2.4,  60,   0.8,   1.2,   2.0,   0.0,  1.92, 
 07/03/02, 04:00,  -1.2,  43,   0.8,   1.2,   2.0,   0.0,  1.94, 
 07/03/02, 05:00,  -0.9,  44,   0.8,   1.2,   2.0,   0.0,  1.94, 
 07/03/02, 06:00,  -2.6,  52,   0.7,   1.2,   2.0,   0.0,  1.90, 
 07/03/02, 07:00,  -1.3,  41,   0.8,   1.2,   2.0,   0.0,  1.89, 
 07/03/02, 08:00,  -0.7,  43,   0.7,   1.2,   2.0,   0.0,  1.89, 
 07/03/02, 09:00,   1.9,  31,   0.7,   1.2,   2.0,   0.0,  1.88, 
 07/03/02, 10:00,   3.6,  30,   0.8,   1.2,   2.0,   0.0,  1.90, 
 07/03/02, 11:00,   5.8,  29,   0.8,   1.2,   2.0,   0.0,  1.95, 
 07/03/02, 12:00,   5.4,  39,   0.8,   1.2,   2.0,   0.0,  1.97, 
 07/03/02, 13:00,   5.8,  38,   0.8,   1.2,   2.0,   0.0,  1.95, 
 07/03/02, 14:00,   8.3,  21,   0.9,   1.2,   2.0,   0.0,  1.95, 
 07/03/02, 15:00,   7.9,  32,   0.8,   1.2,   2.0,   0.0,  1.96, 
 07/03/02, 16:00,   6.6,  31,   0.8,   1.2,   2.0,   0.0,  1.97, 
 07/03/02, 17:00,   6.2,  29,   0.8,   1.2,   2.0,   0.0,  1.98, 
 07/03/02, 18:00,   3.5,  46,   0.8,   1.2,   2.0,   0.0,  1.96, 
 07/03/02, 19:00,   2.2,  42,   0.8,   1.2,   2.0,   0.0,  1.96, 
 07/03/02, 20:00,   1.8,  37,   0.7,   1.2,   2.0,   0.0,  2.02, 
 07/03/02, 21:00,   1.3,  37,   0.8,   1.2,   2.0,   0.0,  2.00, 
 07/03/02, 22:00,   1.1,  35,   0.8,   1.2,   2.0,   0.0,  2.01, 
 07/03/02, 23:00,   0.9,  36,   0.7,   1.2,   2.0,   0.0,  1.99, 
 07/03/03, 00:00,   0.1,  44,   0.7,   1.2,   2.0,   0.0,  1.97, 
 07/03/03, 01:00,   0.2,  49,   0.7,   1.2,   2.0,   0.0,  1.63, 
 07/03/03, 02:00,   1.1,  43,   0.7,   1.2,   2.0,   0.0,  1.99, 
 07/03/03, 03:00,   3.1,  32,   0.7,   1.2,   2.0,   0.0,  1.94, 
 07/03/03, 04:00,   1.4,  39,   0.7,   1.2,   2.0,   0.0,  1.97, 
 07/03/03, 05:00,   2.1,  39,   0.8,   1.2,   2.0,   0.0,  1.98, 
 07/03/03, 06:00,   6.3,  12,   0.7,   1.2,   2.0,   0.0,  1.91, 
 07/03/03, 07:00,   3.3,  24,   0.7,   1.2,   2.0,   0.0,  1.93, 
 07/03/03, 08:00,   3.9,  34,   0.7,   1.2,   2.0,   0.0,  1.95, 
 07/03/03, 09:00,   7.3,  24,   0.8,   1.2,   2.0,   0.0,  1.96, 
 07/03/03, 10:00,   7.7,  22,   0.7,   1.2,   2.0,   0.0,  2.00, 
 07/03/03, 11:00,   6.2,  41,   0.8,   1.2,   2.0,   0.0,  1.99, 
 07/03/03, 12:00,   7.5,  24,   0.7,   1.2,   2.0,   0.0,  1.97, 
 07/03/03, 13:00,   8.4,  34,   0.8,   1.2,   2.0,   0.0,  1.98, 
 07/03/03, 14:00,   9.5,  35,   0.8,   1.1,   2.0,   0.0,  2.02, 
 07/03/03, 15:00,   7.9,  48,   0.8,   1.2,   2.0,   0.0,  2.01, 
 07/03/03, 16:00,   7.9,  41,   0.8,   1.1,   2.0,   0.0,  2.01, 
 07/03/03, 17:00,   7.7,  46,   0.8,   1.1,   2.0,   0.0,  2.01, 
 07/03/03, 18:00,   5.1,  61,   0.8,   1.1,   2.0,   0.0,  1.96, 
 07/03/03, 19:00,   5.9,  54,   0.8,   1.2,   2.0,   0.0,  1.97, 
 07/03/03, 20:00,   5.0,  62,   0.8,   1.2,   2.0,   0.0,  1.97, 
 07/03/03, 21:00,   4.9,  64,   0.8,   1.2,   2.0,   0.0,  2.01, 
 07/03/03, 22:00,   4.6,  59,   0.7,   1.2,   2.0,   0.0,  1.97, 
 07/03/03, 23:00,   4.9,  57,   0.7,   1.2,   2.0,   0.0,  1.95, 
 07/03/04, 00:00,   3.8,  66,   0.7,   1.2,   2.0,   0.0,  2.00, 
 07/03/04, 01:00,   4.1,  64,   0.7,   1.2,   2.0,   0.0,  1.66, 
 07/03/04, 02:00,   4.0,  68,   0.7,   1.2,   2.0,   0.0,  2.00, 
 07/03/04, 03:00,   3.9,  71,   0.7,   1.2,   2.0,   0.0,  1.97, 
 07/03/04, 04:00,   3.2,  76,   0.7,   1.2,   2.0,   0.0,  1.96, 
 07/03/04, 05:00,   6.4,  76,   0.7,   1.2,   2.0,   0.0,  1.97, 
 07/03/04, 06:00,   3.7,  74,   0.7,   1.2,   2.0,   0.0,  1.94, 
 07/03/04, 07:00,   7.0,  79,   0.7,   1.2,   2.0,   0.0,  1.95, 
 07/03/04, 08:00,   7.8,  72,   0.7,   1.2,   2.0,   0.0,  1.96, 
 07/03/04, 09:00,   6.4,  62,   0.7,   1.2,   2.0,   0.0,  1.98, 
 07/03/04, 10:00,   9.2,  61,   0.8,   1.2,   2.0,   0.0,  2.02, 
 07/03/04, 11:00,   9.9,  60,   0.8,   1.2,   2.0,   0.0,  1.98, 
 07/03/04, 12:00,   9.7,  59,   0.8,   1.2,   2.0,   0.0,  2.02, 
 07/03/04, 13:00,  10.8,  54,   0.8,   1.2,   2.0,   0.0,  1.99, 
 07/03/04, 14:00,  10.6,  55,   0.9,   1.2,   2.0,   0.0,  2.03, 
 07/03/04, 15:00,  11.1,  55,   0.8,   1.2,   2.0,   0.0,  2.03, 
 07/03/04, 16:00,  10.2,  59,   0.8,   1.2,   2.0,   0.0,  2.02, 
 07/03/04, 17:00,   9.6,  61,   0.8,   1.2,   2.0,   0.0,  2.01, 
 07/03/04, 18:00,   9.0,  65,   0.8,   1.2,   2.0,   0.0,  2.01, 
 07/03/04, 19:00,   7.5,  72,   0.8,   1.2,   2.0,   0.0,  2.02, 
 07/03/04, 20:00,   6.9,  80,   0.8,   1.2,   1.9,   0.0,  2.03, 
 07/03/04, 21:00,   7.0,  83,   0.8,   1.2,   2.0,   0.0,  1.99, 
 07/03/04, 22:00,   6.4,  86,   0.8,   1.2,   1.9,   0.0,  2.01, 
 07/03/04, 23:00,   6.6,  77,   0.8,   1.2,   1.9,   0.0,  2.00, 
 07/03/05, 00:00,   7.0,  69,   0.8,   1.2,   1.9,   0.0,  1.99, 
 07/03/05, 01:00,   6.4,  71,   0.8,   1.2,   1.9,   0.0,  1.64, 
 07/03/05, 02:00,   6.5,  60,   0.8,   1.2,   1.9,   0.0,  1.97, 
 07/03/05, 03:00,   3.7,  73,   0.8,   1.2,   1.9,   0.0,  1.94, 
 07/03/05, 04:00,   4.9,  54,   0.8,   1.2,   1.9,   0.0,  1.95, 
 07/03/05, 05:00,   4.4,  63,   0.8,   1.2,   1.9,   0.0,  1.95, 
 07/03/05, 06:00,   5.5,  69,   0.8,   1.2,   1.9,   0.0,  1.95, 
 07/03/05, 07:00,   6.8,  71,   0.8,   1.2,   1.9,   0.0,  1.98, 
 07/03/05, 08:00,   7.0,  72,   0.8,   1.2,   1.9,   0.0,  1.93, 
 07/03/05, 09:00,   7.2,  80,   0.8,   1.2,   1.9,   0.0,  1.92, 
 07/03/05, 10:00,   6.2,  98,   0.8,   1.2,   1.9,   0.5,  1.96, 
 07/03/05, 11:00,   7.2,  92,   0.8,   1.2,   1.9,   1.0,  1.90, 
 07/03/05, 12:00,   7.9,  86,   0.9,   1.2,   1.9,   1.0,  1.95, 
 07/03/05, 13:00,   7.6,  99,   0.9,   1.2,   1.9,   0.5,  1.96, 
 07/03/05, 14:00,   7.6,  99,   1.0,   1.2,   1.9,   1.0,  1.95, 
 07/03/05, 15:00,   7.9,  99,   1.1,   1.2,   1.9,   1.0,  1.95, 
 07/03/05, 16:00,   7.9,  99,   1.1,   1.2,   1.8,   2.0,  1.92, 
 07/03/05, 17:00,   8.1,  99,   1.2,   1.2,   1.8,   2.5,  1.96, 
 07/03/05, 18:00,   8.2,  99,   1.2,   1.3,   1.8,   0.5,  1.96, 
 07/03/05, 19:00,   7.4,  99,   1.3,   1.3,   1.8,   1.5,  1.96, 
 07/03/05, 20:00,   5.0,  99,   1.4,   1.3,   1.7,   9.0,  1.99, 
 07/03/05, 21:00,   4.0,  99,   1.4,   1.3,   1.8,   0.0,  1.97, 
 07/03/05, 22:00,   3.5,  99,   1.3,   1.3,   1.7,   0.0,  1.99, 
 07/03/05, 23:00,   2.7,  99,   1.3,   1.3,   1.8,   0.0,  2.02, 
 07/03/06, 00:00,   1.9,  99,   1.2,   1.3,   1.7,   0.0,  2.01, 
 07/03/06, 01:00,   1.1,  99,   1.2,   1.4,   1.8,   0.0,  1.66, 
 07/03/06, 02:00,   1.1,  99,   1.1,   1.4,   1.7,   0.0,  2.03, 
 07/03/06, 03:00,   0.6,  99,   1.1,   1.4,   1.7,   0.0,  2.03, 
 07/03/06, 04:00,   0.0,  99,   1.1,   1.4,   1.8,   0.5,  2.06, 
 07/03/06, 05:00,  -1.1,  99,   1.0,   1.4,   1.8,   1.5,  2.04, 
 07/03/06, 06:00,  -1.7,  99,   1.0,   1.3,   1.8,   1.5,  2.02, 
 07/03/06, 07:00,  -2.4,  97,   0.9,   1.3,   1.8,   0.5,  2.04, 
 07/03/06, 08:00,  -2.4,  92,   0.9,   1.3,   1.8,   0.0,  1.98, 
 07/03/06, 09:00,  -1.6,  94,   0.9,   1.3,   1.8,   0.0,  1.96, 
 07/03/06, 10:00,  -1.9,  93,   0.8,   1.3,   1.8,   0.0,  2.06, 
 07/03/06, 11:00,  -1.5,  90,   0.8,   1.3,   1.8,   0.5,  2.02, 
 07/03/06, 12:00,  -1.7,  95,   0.8,   1.3,   1.8,   0.0,  2.03, 
 07/03/06, 13:00,  -2.1,  92,   0.8,   1.3,   1.8,   0.0,  1.99, 
 07/03/06, 14:00,  -2.8,  81,   0.8,   1.3,   1.8,   0.5,  2.02, 
 07/03/06, 15:00,  -3.3,  78,   0.8,   1.3,   1.8,   0.0,  2.02, 
 07/03/06, 16:00,  -4.6,  74,   0.8,   1.3,   1.8,   0.0,  2.04, 
 07/03/06, 17:00,  -5.8,  66,   0.7,   1.3,   1.9,   0.0,  2.02, 
 07/03/06, 18:00,  -7.0,  72,   0.7,   1.3,   1.9,   0.5,  2.01, 
 07/03/06, 19:00,  -7.4,  86,   0.7,   1.2,   1.9,   0.0,  2.04, 
 07/03/06, 20:00,  -7.6,  77,   0.6,   1.2,   1.9,   0.0,  2.02, 
 07/03/06, 21:00,  -7.9,  72,   0.6,   1.2,   1.9,   0.0,  1.98, 
 07/03/06, 22:00,  -8.0,  78,   0.5,   1.2,   1.9,   0.0,  1.97, 
 07/03/06, 23:00,  -8.3,  83,   0.5,   1.2,   1.9,   0.0,  1.95, 
 07/03/07, 00:00,  -8.5,  85,   0.5,   1.2,   1.9,   0.0,  1.97, 
 07/03/07, 01:00,  -9.1,  85,   0.5,   1.2,   1.9,   0.0,  1.59, 
 07/03/07, 02:00,  -9.0,  81,   0.5,   1.2,   1.9,   0.0,  1.86, 
 07/03/07, 03:00,  -9.3,  83,   0.4,   1.1,   1.9,   0.0,  1.86, 
 07/03/07, 04:00,  -9.6,  79,   0.4,   1.1,   1.9,   0.0,  1.84, 
 07/03/07, 05:00,  -9.6,  77,   0.4,   1.1,   1.9,   0.0,  1.88, 
 07/03/07, 06:00,  -9.6,  70,   0.4,   1.0,   1.9,   0.0,  1.87, 
 07/03/07, 07:00,  -9.6,  72,   0.4,   1.1,   1.9,   0.0,  1.86, 
 07/03/07, 08:00,  -7.3,  65,   0.4,   1.1,   1.9,   0.0,  1.80, 
 07/03/07, 09:00,  -5.9,  70,   0.4,   1.1,   1.9,   0.0,  1.84, 
 07/03/07, 10:00,  -6.0,  79,   0.3,   1.0,   1.9,   0.0,  1.92, 
 07/03/07, 11:00,  -4.6,  77,   0.4,   1.0,   1.9,   0.0,  2.02, 
 07/03/07, 12:00,  -3.5,  77,   0.4,   1.0,   1.9,   0.0,  2.01, 
 07/03/07, 13:00,  -4.1,  77,   0.4,   1.0,   2.0,   0.0,  2.00, 
 07/03/07, 14:00,  -4.2,  74,   0.4,   1.0,   2.0,   0.0,  1.95, 
 07/03/07, 15:00,  -3.6,  68,   0.4,   1.0,   1.9,   0.0,  1.92, 
 07/03/07, 16:00,  -4.4,  73,   0.4,   1.0,   2.0,   0.0,  1.88, 
 07/03/07, 17:00,  -5.5,  97,   0.4,   1.0,   2.0,   0.5,  1.91, 
 07/03/07, 18:00,  -6.5,  94,   0.4,   1.0,   1.9,   1.0,  1.98, 
 07/03/07, 19:00,  -7.0,  95,   0.4,   1.0,   1.9,   2.0,  1.98, 
 07/03/07, 20:00,  -7.3,  95,   0.3,   1.0,   1.9,   0.0,  2.04, 
 07/03/07, 21:00,  -7.1,  94,   0.4,   0.9,   1.9,   0.0,  2.01, 
 07/03/07, 22:00,  -6.8,  96,   0.4,   0.9,   1.9,   0.0,  2.04, 
 07/03/07, 23:00,  -6.9,  96,   0.4,   0.9,   1.9,   0.5,  2.03, 
 07/03/08, 00:00,  -6.9,  96,   0.3,   0.9,   1.9,   0.5,  2.04, 
 07/03/08, 01:00,  -7.1,  95,   0.3,   0.9,   1.9,   1.0,  1.69, 
 07/03/08, 02:00,  -7.3,  94,   0.3,   0.9,   1.9,   2.0,  2.04, 
 07/03/08, 03:00,  -7.3,  96,   0.3,   0.9,   1.9,   1.0,  2.02, 
 07/03/08, 04:00,  -8.4,  91,   0.3,   0.9,   1.9,   0.5,  2.07, 
 07/03/08, 05:00,  -9.9,  92,   0.3,   0.9,   1.9,   0.0,  2.02, 
 07/03/08, 06:00,  -8.2,  93,   0.3,   0.9,   1.9,   0.0,  1.98, 
 07/03/08, 07:00,  -9.6,  92,   0.3,   0.9,   1.9,   0.0,  2.01, 
 07/03/08, 08:00,  -7.4,  88,   0.2,   0.9,   1.9,   0.0,  1.97, 
 07/03/08, 09:00,  -6.5,  79,   0.2,   0.9,   1.9,   0.0,  2.02, 
 07/03/08, 10:00,  -4.6,  83,   0.2,   0.9,   1.9,   0.0,  2.04, 
 07/03/08, 11:00,  -5.7,  88,   0.2,   0.9,   1.8,   0.5,  2.00, 
 07/03/08, 12:00,  -4.2,  79,   0.2,   0.9,   1.8,   0.0,  2.02, 
 07/03/08, 13:00,  -3.4,  83,   0.3,   0.9,   1.8,   0.0,  2.01, 
 07/03/08, 14:00,  -4.6,  90,   0.2,   0.9,   1.8,   0.0,  2.03, 
 07/03/08, 15:00,  -3.3,  86,   0.3,   0.9,   1.8,   0.0,  2.02, 
 07/03/08, 16:00,  -3.9,  72,   0.2,   0.9,   1.8,   0.0,  1.99, 
 07/03/08, 17:00,  -4.9,  81,   0.2,   0.8,   1.8,   0.0,  2.03, 
 07/03/08, 18:00,  -5.3,  78,   0.2,   0.8,   1.8,   0.0,  1.97, 
 07/03/08, 19:00,  -6.0,  81,   0.2,   0.8,   1.8,   0.0,  1.99, 
 07/03/08, 20:00,  -6.3,  82,   0.2,   0.8,   1.8,   0.0,  1.96, 
 07/03/08, 21:00,  -6.7,  84,   0.2,   0.8,   1.8,   0.0,  1.93, 
 07/03/08, 22:00,  -7.8,  87,   0.2,   0.8,   1.8,   0.0,  1.96, 
 07/03/08, 23:00,  -6.6,  78,   0.2,   0.8,   1.8,   0.0,  1.95, 
 07/03/09, 00:00,  -6.5,  76,   0.2,   0.8,   1.8,   0.0,  1.97, 
 07/03/09, 01:00,  -6.8,  75,   0.2,   0.8,   1.8,   0.0,  1.60, 
 07/03/09, 02:00,  -6.8,  76,   0.2,   0.8,   1.8,   0.0,  1.95, 
 07/03/09, 03:00,  -7.8,  84,   0.2,   0.8,   1.8,   0.0,  1.92, 
 07/03/09, 04:00,  -8.1,  89,   0.2,   0.8,   1.8,   0.0,  1.88, 
 07/03/09, 05:00,  -7.6,  88,   0.2,   0.8,   1.8,   0.0,  1.87, 
 07/03/09, 06:00,  -7.5,  84,   0.2,   0.8,   1.8,   0.0,  1.87, 
 07/03/09, 07:00,  -7.6,  86,   0.2,   0.8,   1.8,   0.0,  1.84, 
 07/03/09, 08:00,  -5.3,  72,   0.2,   0.8,   1.8,   0.0,  1.85, 
 07/03/09, 09:00,  -5.3,  83,   0.2,   0.8,   1.8,   0.0,  1.78, 
 07/03/09, 10:00,  -2.8,  72,   0.2,   0.8,   1.8,   0.0,  1.89, 
 07/03/09, 11:00,  -2.5,  67,   0.2,   0.8,   1.8,   0.0,  1.93, 
 07/03/09, 12:00,  -2.1,  65,   0.2,   0.8,   1.8,   0.0,  2.02, 
 07/03/09, 13:00,  -1.1,  62,   0.2,   0.8,   1.8,   0.0,  2.02, 
 07/03/09, 14:00,   0.4,  55,   0.2,   0.8,   1.8,   0.0,  2.00, 
 07/03/09, 15:00,   0.1,  54,   0.2,   0.8,   1.8,   0.0,  2.00, 
 07/03/09, 16:00,  -0.8,  59,   0.2,   0.8,   1.8,   0.0,  1.99, 
 07/03/09, 17:00,  -1.6,  60,   0.2,   0.8,   1.8,   0.0,  1.99, 
 07/03/09, 18:00,  -2.2,  67,   0.2,   0.8,   1.8,   0.0,  1.99, 
 07/03/09, 19:00,  -3.5,  75,   0.2,   0.8,   1.8,   0.0,  1.96, 
 07/03/09, 20:00,  -4.5,  81,   0.2,   0.8,   1.8,   0.0,  1.96, 
 07/03/09, 21:00,  -5.3,  84,   0.2,   0.8,   1.8,   0.5,  1.97, 
 07/03/09, 22:00,  -6.0,  85,   0.2,   0.8,   1.8,   0.0,  1.99, 
 07/03/09, 23:00,  -6.5,  89,   0.2,   0.8,   1.8,   0.0,  1.97, 
 07/03/10, 00:00,  -4.4,  75,   0.2,   0.8,   1.8,   0.0,  1.97, 
 07/03/10, 01:00,  -6.0,  78,   0.2,   0.8,   1.8,   0.0,  1.61, 
 07/03/10, 02:00,  -4.5,  72,   0.2,   0.8,   1.8,   0.0,  1.92, 
 07/03/10, 03:00,  -3.7,  68,   0.2,   0.8,   1.8,   0.0,  1.89, 
 07/03/10, 04:00,  -3.8,  66,   0.2,   0.8,   1.8,   0.0,  1.89, 
 07/03/10, 05:00,  -5.1,  71,   0.2,   0.8,   1.8,   0.0,  1.88, 
 07/03/10, 06:00,  -5.3,  68,   0.2,   0.8,   1.8,   0.0,  1.83, 
 07/03/10, 07:00,  -6.4,  71,   0.2,   0.8,   1.8,   0.0,  1.85, 
 07/03/10, 08:00,  -3.3,  56,   0.2,   0.8,   1.8,   0.0,  1.84, 
 07/03/10, 09:00,  -0.8,  42,   0.2,   0.8,   1.8,   0.0,  1.83, 
 07/03/10, 10:00,   1.0,  49,   0.2,   0.8,   1.8,   0.0,  1.91, 
 07/03/10, 11:00,   1.9,  49,   0.2,   0.8,   1.7,   0.0,  1.94, 
 07/03/10, 12:00,   2.9,  52,   0.2,   0.8,   1.8,   0.0,  1.91, 
 07/03/10, 13:00,   5.0,  42,   0.2,   0.8,   1.7,   0.0,  1.92, 
 07/03/10, 14:00,   6.2,  38,   0.2,   0.8,   1.7,   0.0,  1.91, 
 07/03/10, 15:00,   5.5,  41,   0.2,   0.8,   1.7,   0.0,  1.97, 
 07/03/10, 16:00,   3.2,  49,   0.2,   0.8,   1.7,   0.0,  1.94, 
 07/03/10, 17:00,   2.0,  52,   0.2,   0.8,   1.7,   0.0,  1.96, 
 07/03/10, 18:00,   1.5,  48,   0.2,   0.8,   1.7,   0.0,  1.94, 
 07/03/10, 19:00,  -0.4,  73,   0.2,   0.8,   1.7,   0.0,  1.91, 
 07/03/10, 20:00,  -0.8,  74,   0.2,   0.8,   1.7,   0.0,  1.92, 
 07/03/10, 21:00,  -0.7,  81,   0.2,   0.8,   1.7,   0.0,  1.92, 
 07/03/10, 22:00,   0.5,  74,   0.2,   0.7,   1.7,   0.0,  1.91, 
 07/03/10, 23:00,   0.2,  90,   0.2,   0.8,   1.7,   0.0,  1.87, 
 07/03/11, 00:00,   0.0,  99,   0.2,   0.8,   1.7,   0.5,  1.88, 
 07/03/11, 01:00,  -0.4,  99,   0.2,   0.7,   1.7,   2.5,  1.56, 
 07/03/11, 02:00,   0.0,  99,   0.2,   0.8,   1.7,   1.5,  1.90, 
 07/03/11, 03:00,  -0.2,  99,   0.2,   0.7,   1.7,   2.0,  1.86, 
 07/03/11, 04:00,  -1.1,  99,   0.2,   0.7,   1.7,   3.0,  1.88, 
 07/03/11, 05:00,  -0.9,  99,   0.2,   0.7,   1.7,   4.5,  1.89, 
 07/03/11, 06:00,  -0.7,  99,   0.2,   0.7,   1.7,   3.5,  1.86, 
 07/03/11, 07:00,  -3.0,  98,   0.2,   0.7,   1.7,   2.5,  1.91, 
 07/03/11, 08:00,  -3.9,  95,   0.2,   0.7,   1.7,   1.5,  1.87, 
 07/03/11, 09:00,  -4.3,  91,   0.2,   0.7,   1.7,   0.0,  1.87, 
 07/03/11, 10:00,  -4.3,  92,   0.2,   0.7,   1.7,   0.0,  1.84, 
 07/03/11, 11:00,  -4.1,  86,   0.2,   0.7,   1.7,   0.5,  1.87, 
 07/03/11, 12:00,  -3.2,  86,   0.2,   0.7,   1.7,   0.0,  1.83, 
 07/03/11, 13:00,  -4.1,  86,   0.2,   0.7,   1.7,   0.0,  1.90, 
 07/03/11, 14:00,  -5.2,  78,   0.2,   0.7,   1.7,   0.0,  1.92, 
 07/03/11, 15:00,  -4.6,  82,   0.2,   0.7,   1.7,   0.0,  1.92, 
 07/03/11, 16:00,  -6.5,  90,   0.2,   0.7,   1.7,   0.0,  1.86, 
 07/03/11, 17:00,  -7.0,  89,   0.2,   0.7,   1.7,   0.5,  1.89, 
 07/03/11, 18:00,  -7.5,  95,   0.2,   0.7,   1.7,   0.5,  1.88, 
 07/03/11, 19:00,  -8.5,  95,   0.2,   0.7,   1.7,   0.5,  1.83, 
 07/03/11, 20:00,  -8.2,  95,   0.2,   0.7,   1.7,   0.0,  1.78, 
 07/03/11, 21:00,  -8.0,  95,   0.2,   0.7,   1.7,   0.5,  1.81, 
 07/03/11, 22:00,  -7.9,  96,   0.2,   0.7,   1.7,   1.0,  1.81, 
 07/03/11, 23:00,  -7.9,  96,   0.2,   0.7,   1.7,   2.0,  1.81, 
 07/03/12, 00:00,  -7.9,  95,   0.2,   0.7,   1.7,   0.5,  1.77, 
 07/03/12, 01:00,  -7.9,  96,   0.2,   0.7,   1.7,   0.5,  1.46, 
 07/03/12, 02:00,  -7.9,  97,   0.2,   0.7,   1.7,   0.5,  1.77, 
 07/03/12, 03:00,  -8.0,  96,   0.2,   0.7,   1.7,   0.5,  1.72, 
 07/03/12, 04:00,  -7.9,  95,   0.2,   0.7,   1.7,   0.5,  1.68, 
 07/03/12, 05:00,  -8.0,  96,   0.2,   0.7,   1.7,   0.0,  1.63, 
 07/03/12, 06:00,  -8.0,  96,   0.2,   0.7,   1.7,   1.0,  1.67, 
 07/03/12, 07:00,  -8.3,  94,   0.2,   0.7,   1.7,   0.5,  1.62, 
 07/03/12, 08:00,  -8.7,  95,   0.2,   0.7,   1.7,   0.0,  1.61, 
 07/03/12, 09:00,  -7.8,  95,   0.2,   0.7,   1.7,   0.5,  1.61, 
 07/03/12, 10:00,  -6.9,  99,   0.2,   0.7,   1.7,  16.0,  1.57, 
 07/03/12, 11:00,  -6.7,  99,   0.2,   0.7,   1.7,   1.0,  1.61, 
 07/03/12, 12:00,  -5.6,  96,   0.2,   0.7,   1.7,   0.0,  1.67, 
 07/03/12, 13:00,  -5.2,  92,   0.2,   0.7,   1.7,   0.0,  1.76, 
 07/03/12, 14:00,  -5.3,  96,   0.2,   0.7,   1.7,   0.5,  1.81, 
 07/03/12, 15:00,  -5.0,  89,   0.2,   0.7,   1.7,   0.0,  1.83, 
 07/03/12, 16:00,  -6.1,  95,   0.2,   0.7,   1.7,   0.5,  1.85, 
 07/03/12, 17:00,  -6.5,  95,   0.2,   0.7,   1.7,   0.0,  1.87, 
 07/03/12, 18:00,  -6.9,  95,   0.2,   0.7,   1.7,   0.0,  1.89, 
 07/03/12, 19:00,  -7.1,  93,   0.2,   0.7,   1.7,   0.0,  1.89, 
 07/03/12, 20:00,  -7.1,  95,   0.2,   0.7,   1.7,   0.0,  1.89, 
 07/03/12, 21:00,  -7.1,  95,   0.2,   0.7,   1.7,   0.0,  1.88, 
 07/03/12, 22:00,  -7.2,  94,   0.2,   0.7,   1.7,   0.0,  1.91, 
 07/03/12, 23:00,  -7.5,  92,   0.2,   0.7,   1.7,   0.0,  1.86, 
 07/03/13, 00:00,  -7.8,  93,   0.2,   0.7,   1.7,   0.0,  1.86, 
 07/03/13, 01:00,  -7.8,  90,   0.2,   0.7,   1.7,   0.0,  1.59, 
 07/03/13, 02:00,  -7.6,  89,   0.2,   0.7,   1.7,   0.0,  1.91, 
 07/03/13, 03:00,  -7.6,  91,   0.2,   0.7,   1.7,   0.0,  1.94, 
 07/03/13, 04:00,  -7.2,  91,   0.2,   0.7,   1.7,   0.0,  1.90, 
 07/03/13, 05:00,  -6.7,  91,   0.2,   0.7,   1.7,   0.5,  1.95, 
 07/03/13, 06:00,  -6.0,  92,   0.2,   0.7,   1.7,   0.0,  1.92, 
 07/03/13, 07:00,  -5.6,  91,   0.2,   0.7,   1.7,   0.0,  1.95, 
 07/03/13, 08:00,  -5.2,  94,   0.2,   0.7,   1.6,   0.5,  1.93, 
 07/03/13, 09:00,  -4.9,  93,   0.2,   0.7,   1.7,   0.5,  1.94, 
 07/03/13, 10:00,  -5.2,  93,   0.2,   0.7,   1.7,   0.5,  1.93, 
 07/03/13, 11:00,  -4.7,  90,   0.2,   0.7,   1.7,   0.0,  1.92, 
 07/03/13, 12:00,  -4.6,  90,   0.3,   0.7,   1.7,   0.5,  1.97, 
 07/03/13, 13:00,  -4.6,  90,   0.3,   0.7,   1.7,   0.0,  1.94, 
 07/03/13, 14:00,  -4.6,  90,   0.3,   0.7,   1.8,   0.5,  1.95, 
 07/03/13, 15:00,  -5.0,  83,   0.3,   0.8,   1.8,   0.0,  1.98, 
 07/03/13, 16:00,  -4.5,  73,   0.3,   0.7,   1.8,   0.0,  1.92, 
 07/03/13, 17:00,  -6.1,  75,   0.3,   0.7,   1.8,   0.0,  1.93, 
 07/03/13, 18:00,  -6.7,  87,   0.3,   0.7,   1.8,   0.0,  1.96, 
 07/03/13, 19:00,  -7.8,  85,   0.3,   0.7,   1.7,   0.0,  1.94, 
 07/03/13, 20:00,  -9.2,  86,   0.2,   0.7,   1.7,   0.0,  1.98, 
 07/03/13, 21:00,  -8.8,  84,   0.3,   0.7,   1.7,   0.0,  1.94, 
 07/03/13, 22:00,  -8.9,  88,   0.2,   0.7,   1.7,   0.0,  1.93, 
 07/03/13, 23:00,  -9.0,  82,   0.2,   0.7,   1.7,   0.0,  1.97, 
 07/03/14, 00:00,  -9.1,  86,   0.2,   0.7,   1.7,   0.0,  1.92, 
 07/03/14, 01:00,  -8.7,  85,   0.2,   0.7,   1.7,   0.0,  1.57, 
 07/03/14, 02:00,  -9.0,  89,   0.2,   0.7,   1.7,   0.0,  1.90, 
 07/03/14, 03:00,  -8.9,  92,   0.2,   0.7,   1.7,   0.0,  1.88, 
 07/03/14, 04:00,  -9.3,  87,   0.2,   0.7,   1.7,   0.0,  1.87, 
 07/03/14, 05:00,  -9.8,  90,   0.2,   0.7,   1.7,   0.0,  1.88, 
 07/03/14, 06:00,  -9.7,  83,   0.2,   0.7,   1.7,   0.0,  1.86, 
 07/03/14, 07:00,  -9.0,  80,   0.2,   0.7,   1.7,   0.0,  1.84, 
 07/03/14, 08:00,  -8.3,  87,   0.2,   0.7,   1.7,   0.0,  1.80, 
 07/03/14, 09:00,  -7.7,  86,   0.2,   0.7,   1.7,   0.5,  1.81, 
 07/03/14, 10:00,  -6.0,  77,   0.2,   0.7,   1.7,   0.0,  1.91, 
 07/03/14, 11:00,  -5.1,  78,   0.2,   0.7,   1.7,   0.0,  1.98, 
 07/03/14, 12:00,  -4.9,  84,   0.3,   0.7,   1.7,   0.0,  1.99, 
 07/03/14, 13:00,  -4.2,  85,   0.3,   0.7,   1.8,   0.0,  1.95, 
 07/03/14, 14:00,  -4.3,  79,   0.3,   0.7,   1.8,   0.0,  1.89, 
 07/03/14, 15:00,  -3.8,  72,   0.3,   0.8,   1.8,   0.0,  1.87, 
 07/03/14, 16:00,  -4.7,  66,   0.3,   0.7,   1.8,   0.0,  1.86, 
 07/03/14, 17:00,  -5.0,  71,   0.3,   0.7,   1.8,   0.0,  1.85, 
 07/03/14, 18:00,  -5.8,  74,   0.3,   0.7,   1.8,   0.5,  1.90, 
 07/03/14, 19:00,  -6.6,  78,   0.3,   0.7,   1.7,   0.0,  1.92, 
 07/03/14, 20:00,  -7.8,  81,   0.3,   0.7,   1.7,   0.0,  1.95, 
 07/03/14, 21:00,  -7.7,  70,   0.3,   0.7,   1.7,   0.0,  1.99, 
 07/03/14, 22:00,  -8.5,  64,   0.2,   0.7,   1.7,   0.0,  1.99, 
 07/03/14, 23:00,  -8.8,  56,   0.2,   0.7,   1.7,   0.0,  1.98, 
 07/03/15, 00:00,  -9.6,  56,   0.2,   0.7,   1.7,   0.0,  1.95, 
 07/03/15, 01:00,  -9.4,  49,   0.2,   0.7,   1.7,   0.0,  1.62, 
 07/03/15, 02:00,  -8.6,  42,   0.2,   0.7,   1.7,   0.0,  1.95, 
 07/03/15, 03:00,  -9.8,  55,   0.2,   0.7,   1.7,   0.0,  1.92, 
 07/03/15, 04:00, -10.3,  66,   0.2,   0.7,   1.7,   0.0,  1.91, 
 07/03/15, 05:00,  -9.3,  57,   0.2,   0.7,   1.7,   0.0,  1.92, 
 07/03/15, 06:00,  -8.4,  51,   0.2,   0.7,   1.7,   0.0,  1.87, 
 07/03/15, 07:00,  -7.6,  54,   0.2,   0.7,   1.7,   0.0,  1.88, 
 07/03/15, 08:00,  -6.9,  66,   0.2,   0.7,   1.7,   0.0,  1.85, 
 07/03/15, 09:00,  -4.6,  52,   0.2,   0.7,   1.7,   0.0,  1.86, 
 07/03/15, 10:00,  -3.5,  52,   0.2,   0.7,   1.7,   0.0,  1.85, 
 07/03/15, 11:00,  -4.2,  70,   0.2,   0.7,   1.7,   0.0,  1.83, 
 07/03/15, 12:00,  -2.6,  54,   0.2,   0.7,   1.7,   0.0,  1.89, 
 07/03/15, 13:00,  -1.8,  55,   0.2,   0.7,   1.7,   0.0,  1.88, 
 07/03/15, 14:00,  -2.0,  58,   0.2,   0.7,   1.7,   0.0,  1.85, 
 07/03/15, 15:00,  -2.2,  62,   0.2,   0.7,   1.7,   0.0,  1.90, 
 07/03/15, 16:00,  -2.4,  61,   0.1,   0.7,   1.7,   0.0,  1.91, 
 07/03/15, 17:00,  -2.5,  64,   0.2,   0.7,   1.7,   0.0,  1.86, 
 07/03/15, 18:00,  -3.2,  64,   0.2,   0.7,   1.7,   0.0,  1.84, 
 07/03/15, 19:00,  -3.8,  72,   0.2,   0.7,   1.7,   0.0,  1.80, 
 07/03/15, 20:00,  -4.5,  78,   0.2,   0.7,   1.7,   0.0,  1.83, 
 07/03/15, 21:00,  -5.3,  79,   0.1,   0.7,   1.7,   0.0,  1.83, 
 07/03/15, 22:00,  -5.0,  71,   0.1,   0.7,   1.7,   0.0,  1.81, 
 07/03/15, 23:00,  -5.0,  69,   0.2,   0.7,   1.7,   0.0,  1.79, 
 07/03/16, 00:00,  -5.1,  62,   0.2,   0.7,   1.7,   0.0,  1.81, 
 07/03/16, 01:00,  -4.7,  60,   0.2,   0.7,   1.7,   0.0,  1.48, 